Regional Weather Roundup
Issued by NWS Huntsville, AL

Home | Current Version | Previous Version | Text Only | Print | Product List | Glossary On
Versions: 1 2 3 4 5 6 7 8 9 10 11 12 13 14 15 16 17 18 19 20 21 22 23 24 25 26 27 28 29 30 31 32 33 34 35 36 37 38 39 40 41 42 43 44 45 46 47 48 49 50
000
ASUS44 KHUN 030110
RWRHUN

WEATHER ROUNDUP FOR THE TENNESSEE VALLEY
NATIONAL WEATHER SERVICE HUNTSVILLE AL
800 PM CDT MON MAY 02 2016

ALZ001>004-030200-
NORTHWEST ALABAMA

CITY           SKY/WX    TMP DP  RH WIND       PRES   REMARKS
SHOALS AIRPORT MOCLDY    65  61  87 NW9       29.95R
SHOALS TVA RES   N/A     64 N/A N/A MISG        N/A
$$

ALZ005>007-016-030200-
NORTH CENTRAL ALABAMA

CITY           SKY/WX    TMP DP  RH WIND       PRES   REMARKS
DECATUR AP     CLOUDY    67  63  87 W6        29.91S
HUNTSVILLE AP  CLOUDY    68  62  81 NW5       29.91S
HUN NWS/UAH      N/A     67  63  86 E2          N/A
MERIDIANVILLE  CLOUDY    64  59  82 CALM      29.92F
VINEMONT AP    FAIR      65  64  96 CALM      29.96S
$$

ALZ008>010-030200-
NORTHEAST ALABAMA

CITY           SKY/WX    TMP DP  RH WIND       PRES   REMARKS
ALBERTVILLE    CLOUDY    64  64 100 CALM      29.93S
FORT PAYNE     CLOUDY    64  61  88 CALM      29.93R
SCOTTSBORO HCN   N/A     68 N/A N/A MISG        N/A
VALLEY HEAD      N/A     64 N/A N/A MISG        N/A
$$

TNZ076-096-097-030200-
SOUTHEASTERN MIDDLE TENNESSEE

CITY           SKY/WX    TMP DP  RH WIND       PRES   REMARKS
TULLAHOMA      NOT AVBL
$$

...SURROUNDING SITES...

CITY           SKY/WX    TMP DP  RH WIND       PRES   REMARKS
ATLANTA        CLOUDY    75  63  66 SW9       29.94R
ANNISTON       LGT RAIN  68  64  87 CALM      29.95S
BIRMINGHAM     CLOUDY    70  68  93 SW6       29.95R
CHATTANOOGA    MOCLDY    67  63  87 N6        29.94R FOG
DALTON         CLOUDY    63  63 100 CALM      29.93F
GADSDEN        CLOUDY    66  65  96 CALM      29.94R
GOLDEN TRNGL   CLOUDY    70  64  83 NW3       29.93R
HALEYVILLE     MOCLDY    65  63  93 NW3       29.95R
JACKSON TN     CLOUDY    60  59  96 S3        29.96R
MEMPHIS        MOCLDY    64  55  72 N3        29.97R
NASHVILLE      LGT RAIN  60  56  86 NW8       29.96R
ROME           CLOUDY    66  63  90 W3        29.93R
SAVANNAH       CLOUDY    61  59  94 NW9       29.95R
TUPELO         CLOUDY    64  60  87 W6        29.95S
TUSCALOOSA     CLOUDY    68  67  96 CALM      29.93S
$$

...GULF COAST WEATHER...

CITY           SKY/WX    TMP DP  RH WIND       PRES   REMARKS
GULFPORT       PTCLDY    75  70  84 CALM      29.90R
PASCAGOULA     CLOUDY    75  73  93 CALM      29.92R
MOBILE         CLOUDY    70  69  97 E8        29.95R
GULF SHORES    CLOUDY    75  75 100 CALM      29.94R
DESTIN         MOCLDY    79  75  87 S3        29.94F
APPALACHICOLA  MOCLDY    77  73  87 SW7       29.96R
$$




USA.gov is the U.S. government's official web portal to all federal, state and local government web resources and services.